Year,Month,Day,Hour,Minute,Value (Times are PST for temperature in C)
2020,04,13,00,00,1.70
2020,04,13,00,01,1.70
2020,04,13,00,02,1.70
2020,04,13,00,03,1.70
2020,04,13,00,04,1.60
2020,04,13,00,05,1.60
2020,04,13,00,06,1.60
2020,04,13,00,07,1.60
2020,04,13,00,08,1.60
2020,04,13,00,09,1.60
2020,04,13,00,10,1.60
2020,04,13,00,11,1.60
2020,04,13,00,12,1.60
2020,04,13,00,13,1.60
2020,04,13,00,14,1.60
2020,04,13,00,15,1.50
2020,04,13,00,16,1.50
2020,04,13,00,17,1.50
2020,04,13,00,18,1.50
2020,04,13,00,19,1.40
2020,04,13,00,20,1.40
2020,04,13,00,21,1.40
2020,04,13,00,22,1.40
2020,04,13,00,23,1.40
2020,04,13,00,24,1.40
2020,04,13,00,25,1.40
2020,04,13,00,26,1.40
2020,04,13,00,27,1.40
2020,04,13,00,28,1.40
2020,04,13,00,29,1.30
2020,04,13,00,30,1.30
2020,04,13,00,31,1.30
2020,04,13,00,32,1.30
2020,04,13,00,33,1.30
2020,04,13,00,34,1.20
2020,04,13,00,35,1.20
2020,04,13,00,36,1.20
2020,04,13,00,37,1.20
2020,04,13,00,38,1.20
2020,04,13,00,39,1.10
2020,04,13,00,40,1.10
2020,04,13,00,41,1.10
2020,04,13,00,42,1.10
2020,04,13,00,43,1.10
2020,04,13,00,44,1.00
2020,04,13,00,45,1.00
2020,04,13,00,46,1.00
2020,04,13,00,47,1.00
2020,04,13,00,48,1.00
2020,04,13,00,49,1.00
2020,04,13,00,50,1.00
2020,04,13,00,51,1.00
2020,04,13,00,52,1.10
2020,04,13,00,53,1.10
2020,04,13,00,54,1.10
2020,04,13,00,55,1.10
2020,04,13,00,56,1.10
2020,04,13,00,57,1.10
2020,04,13,00,58,1.10
2020,04,13,00,59,1.10
2020,04,13,01,00,1.10
2020,04,13,01,01,1.10
2020,04,13,01,02,1.10
2020,04,13,01,03,1.10
2020,04,13,01,04,1.10
2020,04,13,01,05,1.10
2020,04,13,01,06,1.10
2020,04,13,01,07,1.00
2020,04,13,01,08,1.00
2020,04,13,01,09,1.00
2020,04,13,01,10,0.90
2020,04,13,01,11,0.90
2020,04,13,01,12,0.90
2020,04,13,01,13,0.90
2020,04,13,01,14,0.90
2020,04,13,01,15,0.90
2020,04,13,01,16,0.80
2020,04,13,01,17,0.80
2020,04,13,01,18,0.80
2020,04,13,01,19,0.80
2020,04,13,01,20,0.80
2020,04,13,01,21,0.70
2020,04,13,01,22,0.70
2020,04,13,01,23,0.70
2020,04,13,01,24,0.70
2020,04,13,01,25,0.70
2020,04,13,01,26,0.70
2020,04,13,01,27,0.60
2020,04,13,01,28,0.60
2020,04,13,01,29,0.60
2020,04,13,01,30,0.60
2020,04,13,01,31,0.60
2020,04,13,01,32,0.60
2020,04,13,01,33,0.60
2020,04,13,01,34,0.60
2020,04,13,01,35,0.60
2020,04,13,01,36,0.60
2020,04,13,01,37,0.60
2020,04,13,01,38,0.60
2020,04,13,01,39,0.60
2020,04,13,01,40,0.60
2020,04,13,01,41,0.60
2020,04,13,01,42,0.60
2020,04,13,01,43,0.60
2020,04,13,01,44,0.60
2020,04,13,01,45,0.60
2020,04,13,01,46,0.60
2020,04,13,01,47,0.50
2020,04,13,01,48,0.50
2020,04,13,01,49,0.50
2020,04,13,01,50,0.50
2020,04,13,01,51,0.40
2020,04,13,01,52,0.40
2020,04,13,01,53,0.40
2020,04,13,01,54,0.30
2020,04,13,01,55,0.30
2020,04,13,01,56,0.30
2020,04,13,01,57,0.30
2020,04,13,01,58,0.30
2020,04,13,01,59,0.20
2020,04,13,02,00,0.20
2020,04,13,02,01,0.20
2020,04,13,02,02,0.20
2020,04,13,02,03,0.10
2020,04,13,02,04,0.10
2020,04,13,02,05,0.10
2020,04,13,02,06,0.10
2020,04,13,02,07,0.10
2020,04,13,02,08,0.10
2020,04,13,02,09,0.10
2020,04,13,02,10,0.10
2020,04,13,02,11,0.10
2020,04,13,02,12,0.10
2020,04,13,02,13,0.10
2020,04,13,02,14,0.10
2020,04,13,02,15,0.20
2020,04,13,02,16,0.10
2020,04,13,02,17,0.10
2020,04,13,02,18,0.10
2020,04,13,02,19,0.10
2020,04,13,02,20,0.10
2020,04,13,02,21,0.10
2020,04,13,02,22,0.10
2020,04,13,02,23,0.10
2020,04,13,02,24,0.10
2020,04,13,02,25,0.10
2020,04,13,02,26,0.10
2020,04,13,02,27,0.10
2020,04,13,02,28,0.10
2020,04,13,02,29,0.10
2020,04,13,02,30,0.10
2020,04,13,02,31,0.10
2020,04,13,02,32,0.10
2020,04,13,02,33,0.10
2020,04,13,02,34,0.10
2020,04,13,02,35,0.10
2020,04,13,02,36,0.10
2020,04,13,02,37,0.10
2020,04,13,02,38,0.10
2020,04,13,02,39,0.10
2020,04,13,02,40,0.10
2020,04,13,02,41,0.10
2020,04,13,02,42,0.10
2020,04,13,02,43,0.10
2020,04,13,02,44,0.00
2020,04,13,02,45,0.00
2020,04,13,02,46,0.00
2020,04,13,02,47,-0.10
2020,04,13,02,48,-0.10
2020,04,13,02,49,-0.10
2020,04,13,02,50,-0.10
2020,04,13,02,51,-0.10
2020,04,13,02,52,-0.10
2020,04,13,02,53,-0.20
2020,04,13,02,54,-0.20
2020,04,13,02,55,-0.20
2020,04,13,02,56,-0.20
2020,04,13,02,57,-0.20
2020,04,13,02,58,-0.20
2020,04,13,02,59,-0.20
2020,04,13,03,00,-0.20
2020,04,13,03,01,-0.20
2020,04,13,03,02,-0.20
2020,04,13,03,03,-0.20
2020,04,13,03,04,-0.20
2020,04,13,03,05,-0.20
2020,04,13,03,06,-0.20
2020,04,13,03,07,-0.20
2020,04,13,03,08,-0.20
2020,04,13,03,09,-0.20
2020,04,13,03,10,-0.20
2020,04,13,03,11,-0.20
2020,04,13,03,12,-0.20
2020,04,13,03,13,-0.20
2020,04,13,03,14,-0.30
2020,04,13,03,15,-0.30
2020,04,13,03,16,-0.30
2020,04,13,03,17,-0.30
2020,04,13,03,18,-0.30
2020,04,13,03,19,-0.30
2020,04,13,03,20,-0.30
2020,04,13,03,21,-0.30
2020,04,13,03,22,-0.40
2020,04,13,03,23,-0.40
2020,04,13,03,24,-0.30
2020,04,13,03,25,-0.40
2020,04,13,03,26,-0.40
2020,04,13,03,27,-0.40
2020,04,13,03,28,-0.40
2020,04,13,03,29,-0.40
2020,04,13,03,30,-0.40
2020,04,13,03,31,-0.40
2020,04,13,03,32,-0.40
2020,04,13,03,33,-0.40
2020,04,13,03,34,-0.40
2020,04,13,03,35,-0.40
2020,04,13,03,36,-0.40
2020,04,13,03,37,-0.40
2020,04,13,03,38,-0.40
2020,04,13,03,39,-0.40
2020,04,13,03,40,-0.40
2020,04,13,03,41,-0.40
2020,04,13,03,42,-0.40
2020,04,13,03,43,-0.50
2020,04,13,03,44,-0.50
2020,04,13,03,45,-0.50
2020,04,13,03,46,-0.50
2020,04,13,03,47,-0.50
2020,04,13,03,48,-0.50
2020,04,13,03,49,-0.50
2020,04,13,03,50,-0.50
2020,04,13,03,51,-0.50
2020,04,13,03,52,-0.60
2020,04,13,03,53,-0.60
2020,04,13,03,54,-0.60
2020,04,13,03,55,-0.60
2020,04,13,03,56,-0.60
2020,04,13,03,57,-0.60
2020,04,13,03,58,-0.60
2020,04,13,03,59,-0.60
2020,04,13,04,00,-0.60
2020,04,13,04,01,-0.60
2020,04,13,04,02,-0.60
2020,04,13,04,03,-0.60
2020,04,13,04,04,-0.60
2020,04,13,04,05,-0.60
2020,04,13,04,06,-0.60
2020,04,13,04,07,-0.60
2020,04,13,04,08,-0.60
2020,04,13,04,09,-0.60
2020,04,13,04,10,-0.60
2020,04,13,04,11,-0.60
2020,04,13,04,12,-0.60
2020,04,13,04,13,-0.60
2020,04,13,04,14,-0.60
2020,04,13,04,15,-0.60
2020,04,13,04,16,-0.60
2020,04,13,04,17,-0.60
2020,04,13,04,18,-0.60
2020,04,13,04,19,-0.60
2020,04,13,04,20,-0.70
2020,04,13,04,21,-0.70
2020,04,13,04,22,-0.70
2020,04,13,04,23,-0.70
2020,04,13,04,24,-0.70
2020,04,13,04,25,-0.70
2020,04,13,04,26,-0.70
2020,04,13,04,27,-0.70
2020,04,13,04,28,-0.70
2020,04,13,04,29,-0.70
2020,04,13,04,30,-0.70
2020,04,13,04,31,-0.70
2020,04,13,04,32,-0.70
2020,04,13,04,33,-0.70
2020,04,13,04,34,-0.70
2020,04,13,04,35,-0.80
2020,04,13,04,36,-0.80
2020,04,13,04,37,-0.80
2020,04,13,04,38,-0.80
2020,04,13,04,39,-0.80
2020,04,13,04,40,-0.80
2020,04,13,04,41,-0.80
2020,04,13,04,42,-0.80
2020,04,13,04,43,-0.80
2020,04,13,04,44,-0.80
2020,04,13,04,45,-0.80
2020,04,13,04,46,-0.80
2020,04,13,04,47,-0.80
2020,04,13,04,48,-0.80
2020,04,13,04,49,-0.80
2020,04,13,04,50,-0.80
2020,04,13,04,51,-0.70
2020,04,13,04,52,-0.70
2020,04,13,04,53,-0.70
2020,04,13,04,54,-0.70
2020,04,13,04,55,-0.70
2020,04,13,04,56,-0.70
2020,04,13,04,57,-0.70
2020,04,13,04,58,-0.70
2020,04,13,04,59,-0.70
2020,04,13,05,00,-0.80
2020,04,13,05,01,-0.80
2020,04,13,05,02,-0.70
2020,04,13,05,03,-0.70
2020,04,13,05,04,-0.70
2020,04,13,05,05,-0.80
2020,04,13,05,06,-0.80
2020,04,13,05,07,-0.80
2020,04,13,05,08,-0.80
2020,04,13,05,09,-0.80
2020,04,13,05,10,-0.70
2020,04,13,05,11,-0.70
2020,04,13,05,12,-0.70
2020,04,13,05,13,-0.70
2020,04,13,05,14,-0.70
2020,04,13,05,15,-0.70
2020,04,13,05,16,-0.70
2020,04,13,05,17,-0.70
2020,04,13,05,18,-0.70
2020,04,13,05,19,-0.70
2020,04,13,05,20,-0.60
2020,04,13,05,21,-0.60
2020,04,13,05,22,-0.60
2020,04,13,05,23,-0.60
2020,04,13,05,24,-0.60
2020,04,13,05,25,-0.60
2020,04,13,05,26,-0.60
2020,04,13,05,27,-0.60
2020,04,13,05,28,-0.60
2020,04,13,05,29,-0.70
2020,04,13,05,30,-0.70
2020,04,13,05,31,-0.70
2020,04,13,05,32,-0.70
2020,04,13,05,33,-0.70
2020,04,13,05,34,-0.70
2020,04,13,05,35,-0.80
2020,04,13,05,36,-0.80
2020,04,13,05,37,-0.80
2020,04,13,05,38,-0.80
2020,04,13,05,39,-0.80
2020,04,13,05,40,-0.80
2020,04,13,05,41,-0.80
2020,04,13,05,42,-0.80
2020,04,13,05,43,-0.80
2020,04,13,05,44,-0.80
2020,04,13,05,45,-0.80
2020,04,13,05,46,-0.80
2020,04,13,05,47,-0.80
2020,04,13,05,48,-0.80
2020,04,13,05,49,-0.80
2020,04,13,05,50,-0.80
2020,04,13,05,51,-0.80
2020,04,13,05,52,-0.80
2020,04,13,05,53,-0.80
2020,04,13,05,54,-0.80
2020,04,13,05,55,-0.80
2020,04,13,05,56,-0.80
2020,04,13,05,57,-0.80
2020,04,13,05,58,-0.80
2020,04,13,05,59,-0.80
2020,04,13,06,00,-0.70
2020,04,13,06,01,-0.70
2020,04,13,06,02,-0.70
2020,04,13,06,03,-0.70
2020,04,13,06,04,-0.70
2020,04,13,06,05,-0.60
2020,04,13,06,06,-0.60
2020,04,13,06,07,-0.60
2020,04,13,06,08,-0.60
2020,04,13,06,09,-0.60
2020,04,13,06,10,-0.50
2020,04,13,06,11,-0.50
2020,04,13,06,12,-0.50
2020,04,13,06,13,-0.40
2020,04,13,06,14,-0.40
2020,04,13,06,15,-0.40
2020,04,13,06,16,-0.30
2020,04,13,06,17,-0.30
2020,04,13,06,18,-0.30
2020,04,13,06,19,-0.30
2020,04,13,06,20,-0.30
2020,04,13,06,21,-0.30
2020,04,13,06,22,-0.40
2020,04,13,06,23,-0.40
2020,04,13,06,24,-0.30
2020,04,13,06,25,-0.30
2020,04,13,06,26,-0.30
2020,04,13,06,27,-0.30
2020,04,13,06,28,-0.30
2020,04,13,06,29,-0.30
2020,04,13,06,30,-0.20
2020,04,13,06,31,-0.20
2020,04,13,06,32,-0.20
2020,04,13,06,33,-0.20
2020,04,13,06,34,-0.20
2020,04,13,06,35,-0.20
2020,04,13,06,36,-0.20
2020,04,13,06,37,-0.20
2020,04,13,06,38,-0.20
2020,04,13,06,39,-0.20
2020,04,13,06,40,-0.20
2020,04,13,06,41,-0.20
2020,04,13,06,42,-0.20
2020,04,13,06,43,-0.20
2020,04,13,06,44,-0.20
2020,04,13,06,45,-0.20
2020,04,13,06,46,-0.20
2020,04,13,06,47,-0.20
2020,04,13,06,48,-0.20
2020,04,13,06,49,-0.20
2020,04,13,06,50,-0.20
2020,04,13,06,51,-0.20
2020,04,13,06,52,-0.20
2020,04,13,06,53,-0.20
2020,04,13,06,54,-0.30
2020,04,13,06,55,-0.30
2020,04,13,06,56,-0.30
2020,04,13,06,57,-0.30
2020,04,13,06,58,-0.30
2020,04,13,06,59,-0.30
2020,04,13,07,00,-0.30
2020,04,13,07,01,-0.30
2020,04,13,07,02,-0.30
2020,04,13,07,03,-0.30
2020,04,13,07,04,-0.30
2020,04,13,07,05,-0.20
2020,04,13,07,06,-0.20
2020,04,13,07,07,-0.20
2020,04,13,07,08,-0.20
2020,04,13,07,09,-0.20
2020,04,13,07,10,-0.20
2020,04,13,07,11,-0.20
2020,04,13,07,12,-0.10
2020,04,13,07,13,0.00
2020,04,13,07,14,0.10
2020,04,13,07,15,0.20
2020,04,13,07,16,0.30
2020,04,13,07,17,0.30
2020,04,13,07,18,0.40
2020,04,13,07,19,0.40
2020,04,13,07,20,0.40
2020,04,13,07,21,0.40
2020,04,13,07,22,0.40
2020,04,13,07,23,0.50
2020,04,13,07,24,0.60
2020,04,13,07,25,0.70
2020,04,13,07,26,0.70
2020,04,13,07,27,0.80
2020,04,13,07,28,0.90
2020,04,13,07,29,1.00
2020,04,13,07,30,1.00
2020,04,13,07,31,1.10
2020,04,13,07,32,1.20
2020,04,13,07,33,1.30
2020,04,13,07,34,1.40
2020,04,13,07,35,1.40
2020,04,13,07,36,1.40
2020,04,13,07,37,1.50
2020,04,13,07,38,1.60
2020,04,13,07,39,1.70
2020,04,13,07,40,1.80
2020,04,13,07,41,2.00
2020,04,13,07,42,2.10
2020,04,13,07,43,2.20
2020,04,13,07,44,2.30
2020,04,13,07,45,2.50
2020,04,13,07,46,2.60
2020,04,13,07,47,2.80
2020,04,13,07,48,2.90
2020,04,13,07,49,3.10
2020,04,13,07,50,3.20
2020,04,13,07,51,3.30
2020,04,13,07,52,3.40
2020,04,13,07,53,3.50
2020,04,13,07,54,3.70
2020,04,13,07,55,3.80
2020,04,13,07,56,3.90
2020,04,13,07,57,4.00
2020,04,13,07,58,4.10
2020,04,13,07,59,4.30
2020,04,13,08,00,4.40
2020,04,13,08,01,4.60
2020,04,13,08,02,4.70
2020,04,13,08,03,4.80
2020,04,13,08,04,4.90
2020,04,13,08,05,5.10
2020,04,13,08,06,5.20
2020,04,13,08,07,5.30
2020,04,13,08,08,5.40
2020,04,13,08,09,5.50
2020,04,13,08,10,5.60
2020,04,13,08,11,5.70
2020,04,13,08,12,5.80
2020,04,13,08,13,5.90
2020,04,13,08,14,6.10
2020,04,13,08,15,6.20
2020,04,13,08,16,6.30
2020,04,13,08,17,6.40
2020,04,13,08,18,6.50
2020,04,13,08,19,6.60
2020,04,13,08,20,6.70
2020,04,13,08,21,6.80
2020,04,13,08,22,6.90
2020,04,13,08,23,7.00
2020,04,13,08,24,7.10
2020,04,13,08,25,7.20
2020,04,13,08,26,7.30
2020,04,13,08,27,7.40
2020,04,13,08,28,7.50
2020,04,13,08,29,7.60
2020,04,13,08,30,7.70
2020,04,13,08,31,7.80
2020,04,13,08,32,7.80
2020,04,13,08,33,7.90
2020,04,13,08,34,7.90
2020,04,13,08,35,8.00
2020,04,13,08,36,8.00
2020,04,13,08,37,8.10
2020,04,13,08,38,8.10
2020,04,13,08,39,8.20
2020,04,13,08,40,8.20
2020,04,13,08,41,8.20
2020,04,13,08,42,8.30
2020,04,13,08,43,8.30
2020,04,13,08,44,8.30
2020,04,13,08,45,8.30
2020,04,13,08,46,8.40
2020,04,13,08,47,8.50
2020,04,13,08,48,8.60
2020,04,13,08,49,8.70
2020,04,13,08,50,8.80
2020,04,13,08,51,9.00
2020,04,13,08,52,9.00
2020,04,13,08,53,9.10
2020,04,13,08,54,9.20
2020,04,13,08,55,9.20
2020,04,13,08,56,9.20
2020,04,13,08,57,9.20
2020,04,13,08,58,9.30
2020,04,13,08,59,9.30
2020,04,13,09,00,9.40
2020,04,13,09,01,9.50
2020,04,13,09,02,9.60
2020,04,13,09,03,9.60
2020,04,13,09,04,9.70
2020,04,13,09,05,9.70
2020,04,13,09,06,9.80
2020,04,13,09,07,9.90
2020,04,13,09,08,9.90
2020,04,13,09,09,10.00
2020,04,13,09,10,10.10
2020,04,13,09,11,10.20
2020,04,13,09,12,10.20
2020,04,13,09,13,10.20
2020,04,13,09,14,10.20
2020,04,13,09,15,10.30
2020,04,13,09,16,10.30
2020,04,13,09,17,10.40
2020,04,13,09,18,10.50
2020,04,13,09,19,10.50
2020,04,13,09,20,10.50
2020,04,13,09,21,10.60
2020,04,13,09,22,10.60
2020,04,13,09,23,10.70
2020,04,13,09,24,10.80
2020,04,13,09,25,10.80
2020,04,13,09,26,10.90
2020,04,13,09,27,10.90
2020,04,13,09,28,10.80
2020,04,13,09,29,10.80
2020,04,13,09,30,10.80
2020,04,13,09,31,10.90
2020,04,13,09,32,10.90
2020,04,13,09,33,11.00
2020,04,13,09,34,11.20
2020,04,13,09,35,11.30
2020,04,13,09,36,11.40
2020,04,13,09,37,11.40
2020,04,13,09,38,11.50
2020,04,13,09,39,11.50
2020,04,13,09,40,11.60
2020,04,13,09,41,11.70
2020,04,13,09,42,11.70
2020,04,13,09,43,11.70
2020,04,13,09,44,11.80
2020,04,13,09,45,11.80
2020,04,13,09,46,11.70
2020,04,13,09,47,11.70
2020,04,13,09,48,11.70
2020,04,13,09,49,11.70
2020,04,13,09,50,11.70
2020,04,13,09,51,11.80
2020,04,13,09,52,11.80
2020,04,13,09,53,11.90
2020,04,13,09,54,11.90
2020,04,13,09,55,11.90
2020,04,13,09,56,12.00
2020,04,13,09,57,12.10
2020,04,13,09,58,12.10
2020,04,13,09,59,12.20
2020,04,13,10,00,12.30
2020,04,13,10,01,12.30
2020,04,13,10,02,12.40
2020,04,13,10,03,12.40
2020,04,13,10,04,12.40
2020,04,13,10,05,12.40
2020,04,13,10,06,12.40
2020,04,13,10,07,12.30
2020,04,13,10,08,12.30
2020,04,13,10,09,12.30
2020,04,13,10,10,12.40
2020,04,13,10,11,12.40
2020,04,13,10,12,12.50
2020,04,13,10,13,12.60
2020,04,13,10,14,12.70
2020,04,13,10,15,12.70
2020,04,13,10,16,12.70
2020,04,13,10,17,12.60
2020,04,13,10,18,12.50
2020,04,13,10,19,12.40
2020,04,13,10,20,12.40
2020,04,13,10,21,12.40
2020,04,13,10,22,12.50
2020,04,13,10,23,12.50
2020,04,13,10,24,12.60
2020,04,13,10,25,12.60
2020,04,13,10,26,12.70
2020,04,13,10,27,12.80
2020,04,13,10,28,12.80
2020,04,13,10,29,12.90
2020,04,13,10,30,12.90
2020,04,13,10,31,12.90
2020,04,13,10,32,12.90
2020,04,13,10,33,12.80
2020,04,13,10,34,12.80
2020,04,13,10,35,12.80
2020,04,13,10,36,12.80
2020,04,13,10,37,12.70
2020,04,13,10,38,12.70
2020,04,13,10,39,12.60
2020,04,13,10,40,12.50
2020,04,13,10,41,12.40
2020,04,13,10,42,12.50
2020,04,13,10,43,12.60
2020,04,13,10,44,12.60
2020,04,13,10,45,12.80
2020,04,13,10,46,12.80
2020,04,13,10,47,12.80
2020,04,13,10,48,12.80
2020,04,13,10,49,12.70
2020,04,13,10,50,12.70
2020,04,13,10,51,12.80
2020,04,13,10,52,12.90
2020,04,13,10,53,13.10
2020,04,13,10,54,13.20
2020,04,13,10,55,13.30
2020,04,13,10,56,13.50
2020,04,13,10,57,13.60
2020,04,13,10,58,13.70
2020,04,13,10,59,13.90
2020,04,13,11,00,14.00
2020,04,13,11,01,14.00
2020,04,13,11,02,13.90
2020,04,13,11,03,13.80
2020,04,13,11,04,13.70
2020,04,13,11,05,13.80
2020,04,13,11,06,13.80
2020,04,13,11,07,13.90
2020,04,13,11,08,14.00
2020,04,13,11,09,14.00
2020,04,13,11,10,14.10
2020,04,13,11,11,14.20
2020,04,13,11,12,14.20
2020,04,13,11,13,14.30
2020,04,13,11,14,14.40
2020,04,13,11,15,14.50
2020,04,13,11,16,14.60
2020,04,13,11,17,14.70
2020,04,13,11,18,14.70
2020,04,13,11,19,14.80
2020,04,13,11,20,14.80
2020,04,13,11,21,14.70
2020,04,13,11,22,14.70
2020,04,13,11,23,14.70
2020,04,13,11,24,14.70
2020,04,13,11,25,14.70
2020,04,13,11,26,14.60
2020,04,13,11,27,14.70
2020,04,13,11,28,14.70
2020,04,13,11,29,14.80
2020,04,13,11,30,14.80
2020,04,13,11,31,14.80
2020,04,13,11,32,14.80
2020,04,13,11,33,14.80
2020,04,13,11,34,14.80
2020,04,13,11,35,14.70
2020,04,13,11,36,14.70
2020,04,13,11,37,14.70
2020,04,13,11,38,14.70
2020,04,13,11,39,14.70
2020,04,13,11,40,14.80
2020,04,13,11,41,14.70
2020,04,13,11,42,14.70
2020,04,13,11,43,14.70
2020,04,13,11,44,14.70
2020,04,13,11,45,14.70
2020,04,13,11,46,14.60
2020,04,13,11,47,14.60
2020,04,13,11,48,14.50
2020,04,13,11,49,14.40
2020,04,13,11,50,14.30
2020,04,13,11,51,14.20
2020,04,13,11,52,14.10
2020,04,13,11,53,14.10
2020,04,13,11,54,14.00
2020,04,13,11,55,14.00
2020,04,13,11,56,14.00
2020,04,13,11,57,14.00
2020,04,13,11,58,14.10
2020,04,13,11,59,14.10
2020,04,13,12,00,14.30
2020,04,13,12,01,14.40
2020,04,13,12,02,14.60
2020,04,13,12,03,14.80
2020,04,13,12,04,14.90
2020,04,13,12,05,14.90
2020,04,13,12,06,14.90
2020,04,13,12,07,15.00
2020,04,13,12,08,15.00
2020,04,13,12,09,15.10
2020,04,13,12,10,15.10
2020,04,13,12,11,15.10
2020,04,13,12,12,15.10
2020,04,13,12,13,15.10
2020,04,13,12,14,15.10
2020,04,13,12,15,15.10
2020,04,13,12,16,15.00
2020,04,13,12,17,15.00
2020,04,13,12,18,14.90
2020,04,13,12,19,14.90
2020,04,13,12,20,15.00
2020,04,13,12,21,15.00
2020,04,13,12,22,15.10
2020,04,13,12,23,15.20
2020,04,13,12,24,15.20
2020,04,13,12,25,15.20
2020,04,13,12,26,15.20
2020,04,13,12,27,15.20
2020,04,13,12,28,15.30
2020,04,13,12,29,15.40
2020,04,13,12,30,15.50
2020,04,13,12,31,15.60
2020,04,13,12,32,15.60
2020,04,13,12,33,15.80
2020,04,13,12,34,15.80
2020,04,13,12,35,16.00
2020,04,13,12,36,16.00
2020,04,13,12,37,16.10
2020,04,13,12,38,16.20
2020,04,13,12,39,16.20
2020,04,13,12,40,16.10
2020,04,13,12,41,16.10
2020,04,13,12,42,16.00
2020,04,13,12,43,15.90
2020,04,13,12,44,15.90
2020,04,13,12,45,15.80
2020,04,13,12,46,15.70
2020,04,13,12,47,15.60
2020,04,13,12,48,15.60
2020,04,13,12,49,15.60
2020,04,13,12,50,15.60
2020,04,13,12,51,15.70
2020,04,13,12,52,15.70
2020,04,13,12,53,15.80
2020,04,13,12,54,15.80
2020,04,13,12,55,15.80
2020,04,13,12,56,15.80
2020,04,13,12,57,15.80
2020,04,13,12,58,15.70
2020,04,13,12,59,15.60
2020,04,13,13,00,15.50
2020,04,13,13,01,15.40
2020,04,13,13,02,15.40
2020,04,13,13,03,15.50
2020,04,13,13,04,15.40
2020,04,13,13,05,15.40
2020,04,13,13,06,15.40
2020,04,13,13,07,15.40
2020,04,13,13,08,15.40
2020,04,13,13,09,15.40
2020,04,13,13,10,15.50
2020,04,13,13,11,15.60
2020,04,13,13,12,15.60
2020,04,13,13,13,15.60
2020,04,13,13,14,15.70
2020,04,13,13,15,15.70
2020,04,13,13,16,15.70
2020,04,13,13,17,15.70
2020,04,13,13,18,15.70
2020,04,13,13,19,15.80
2020,04,13,13,20,15.80
2020,04,13,13,21,15.80
2020,04,13,13,22,15.90
2020,04,13,13,23,15.90
2020,04,13,13,24,16.00
2020,04,13,13,25,16.10
2020,04,13,13,26,16.10
2020,04,13,13,27,16.10
2020,04,13,13,28,16.20
2020,04,13,13,29,16.20
2020,04,13,13,30,16.20
2020,04,13,13,31,16.20
2020,04,13,13,32,16.20
2020,04,13,13,33,16.30
2020,04,13,13,34,16.30
2020,04,13,13,35,16.30
2020,04,13,13,36,16.40
2020,04,13,13,37,16.40
2020,04,13,13,38,16.50
2020,04,13,13,39,16.50
2020,04,13,13,40,16.50
2020,04,13,13,41,16.50
2020,04,13,13,42,16.40
2020,04,13,13,43,16.40
2020,04,13,13,44,16.40
2020,04,13,13,45,16.40
2020,04,13,13,46,16.50
2020,04,13,13,47,16.50
2020,04,13,13,48,16.40
2020,04,13,13,49,16.30
2020,04,13,13,50,16.30
2020,04,13,13,51,16.30
2020,04,13,13,52,16.40
2020,04,13,13,53,16.50
2020,04,13,13,54,16.50
2020,04,13,13,55,16.60
2020,04,13,13,56,16.60
2020,04,13,13,57,16.60
2020,04,13,13,58,16.60
2020,04,13,13,59,16.60
2020,04,13,14,00,16.60
2020,04,13,14,01,16.50
2020,04,13,14,02,16.50
2020,04,13,14,03,16.50
2020,04,13,14,04,16.40
2020,04,13,14,05,16.40
2020,04,13,14,06,16.40
2020,04,13,14,07,16.40
2020,04,13,14,08,16.30
2020,04,13,14,09,16.30
2020,04,13,14,10,16.20
2020,04,13,14,11,16.20
2020,04,13,14,12,16.10
2020,04,13,14,13,16.00
2020,04,13,14,14,16.00
2020,04,13,14,15,16.00
2020,04,13,14,16,16.00
2020,04,13,14,17,16.10
2020,04,13,14,18,16.10
2020,04,13,14,19,16.10
2020,04,13,14,20,16.10
2020,04,13,14,21,16.10
2020,04,13,14,22,16.10
2020,04,13,14,23,16.10
2020,04,13,14,24,16.10
2020,04,13,14,25,16.10
2020,04,13,14,26,16.20
2020,04,13,14,27,16.20
2020,04,13,14,28,16.30
2020,04,13,14,29,16.30
2020,04,13,14,30,16.40
2020,04,13,14,31,16.50
2020,04,13,14,32,16.50
2020,04,13,14,33,16.60
2020,04,13,14,34,16.40
2020,04,13,14,35,16.40
2020,04,13,14,36,16.50
2020,04,13,14,37,16.50
2020,04,13,14,38,16.60
2020,04,13,14,39,16.50
2020,04,13,14,40,16.40
2020,04,13,14,41,16.30
2020,04,13,14,42,16.30
2020,04,13,14,43,16.20
2020,04,13,14,44,16.10
2020,04,13,14,45,16.10
2020,04,13,14,46,16.00
2020,04,13,14,47,16.00
2020,04,13,14,48,16.00
2020,04,13,14,49,16.10
2020,04,13,14,50,16.20
2020,04,13,14,51,16.30
2020,04,13,14,52,16.30
2020,04,13,14,53,16.40
2020,04,13,14,54,16.30
2020,04,13,14,55,16.20
2020,04,13,14,56,16.10
2020,04,13,14,57,15.90
2020,04,13,14,58,15.80
2020,04,13,14,59,15.80
2020,04,13,15,00,15.80
2020,04,13,15,01,15.90
2020,04,13,15,02,16.00
2020,04,13,15,03,16.00
2020,04,13,15,04,16.10
2020,04,13,15,05,16.10
2020,04,13,15,06,16.20
2020,04,13,15,07,16.20
2020,04,13,15,08,16.20
2020,04,13,15,09,16.20
2020,04,13,15,10,16.10
2020,04,13,15,11,16.10
2020,04,13,15,12,16.10
2020,04,13,15,13,16.00
2020,04,13,15,14,15.80
2020,04,13,15,15,15.70
2020,04,13,15,16,15.70
2020,04,13,15,17,15.70
2020,04,13,15,18,15.70
2020,04,13,15,19,15.70
2020,04,13,15,20,15.80
2020,04,13,15,21,15.70
2020,04,13,15,22,15.70
2020,04,13,15,23,15.70
2020,04,13,15,24,15.60
2020,04,13,15,25,15.60
2020,04,13,15,26,15.60
2020,04,13,15,27,15.50
2020,04,13,15,28,15.40
2020,04,13,15,29,15.30
2020,04,13,15,30,15.30
2020,04,13,15,31,15.30
2020,04,13,15,32,15.40
2020,04,13,15,33,15.30
2020,04,13,15,34,15.30
2020,04,13,15,35,15.30
2020,04,13,15,36,15.30
2020,04,13,15,37,15.20
2020,04,13,15,38,15.30
2020,04,13,15,39,15.30
2020,04,13,15,40,15.40
2020,04,13,15,41,15.50
2020,04,13,15,42,15.60
2020,04,13,15,43,15.60
2020,04,13,15,44,15.70
2020,04,13,15,45,15.80
2020,04,13,15,46,15.80
2020,04,13,15,47,15.80
2020,04,13,15,48,15.80
2020,04,13,15,49,15.90
2020,04,13,15,50,16.00
2020,04,13,15,51,16.00
2020,04,13,15,52,15.90
2020,04,13,15,53,15.90
2020,04,13,15,54,15.90
2020,04,13,15,55,15.80
2020,04,13,15,56,15.80
2020,04,13,15,57,15.80
2020,04,13,15,58,15.80
2020,04,13,15,59,15.90
2020,04,13,16,00,16.00
2020,04,13,16,01,16.10
2020,04,13,16,02,16.20
2020,04,13,16,03,16.20
2020,04,13,16,04,16.30
2020,04,13,16,05,16.30
2020,04,13,16,06,16.30
2020,04,13,16,07,16.20
2020,04,13,16,08,16.20
2020,04,13,16,09,16.20
2020,04,13,16,10,16.20
2020,04,13,16,11,16.10
2020,04,13,16,12,16.00
2020,04,13,16,13,15.90
2020,04,13,16,14,15.80
2020,04,13,16,15,15.80
2020,04,13,16,16,15.90
2020,04,13,16,17,16.00
2020,04,13,16,18,16.00
2020,04,13,16,19,16.10
2020,04,13,16,20,16.10
2020,04,13,16,21,16.10
2020,04,13,16,22,16.10
2020,04,13,16,23,16.10
2020,04,13,16,24,16.10
2020,04,13,16,25,16.00
2020,04,13,16,26,16.00
2020,04,13,16,27,16.00
2020,04,13,16,28,16.00
2020,04,13,16,29,16.10
2020,04,13,16,30,16.10
2020,04,13,16,31,16.10
2020,04,13,16,32,16.10
2020,04,13,16,33,16.10
2020,04,13,16,34,16.10
2020,04,13,16,35,16.10
2020,04,13,16,36,16.10
2020,04,13,16,37,16.00
2020,04,13,16,38,16.00
2020,04,13,16,39,16.00
2020,04,13,16,40,16.10
2020,04,13,16,41,16.10
2020,04,13,16,42,16.20
2020,04,13,16,43,16.30
2020,04,13,16,44,16.20
2020,04,13,16,45,16.20
2020,04,13,16,46,16.10
2020,04,13,16,47,16.00
2020,04,13,16,48,15.90
2020,04,13,16,49,15.90
2020,04,13,16,50,15.80
2020,04,13,16,51,15.80
2020,04,13,16,52,15.80
2020,04,13,16,53,15.80
2020,04,13,16,54,15.80
2020,04,13,16,55,15.80
2020,04,13,16,56,15.80
2020,04,13,16,57,15.80
2020,04,13,16,58,15.70
2020,04,13,16,59,15.70
2020,04,13,17,00,15.70
2020,04,13,17,01,15.60
2020,04,13,17,02,15.60
2020,04,13,17,03,15.60
2020,04,13,17,04,15.50
2020,04,13,17,05,15.50
2020,04,13,17,06,15.40
2020,04,13,17,07,15.30
2020,04,13,17,08,15.30
2020,04,13,17,09,15.20
2020,04,13,17,10,15.10
2020,04,13,17,11,15.10
2020,04,13,17,12,15.10
2020,04,13,17,13,15.00
2020,04,13,17,14,14.90
2020,04,13,17,15,14.80
2020,04,13,17,16,14.70
2020,04,13,17,17,14.60
2020,04,13,17,18,14.50
2020,04,13,17,19,14.40
2020,04,13,17,20,14.30
2020,04,13,17,21,14.30
2020,04,13,17,22,14.30
2020,04,13,17,23,14.20
2020,04,13,17,24,14.20
2020,04,13,17,25,14.20
2020,04,13,17,26,14.20
2020,04,13,17,27,14.20
2020,04,13,17,28,14.20
2020,04,13,17,29,14.20
2020,04,13,17,30,14.20
2020,04,13,17,31,14.20